User: anonymous   Login
Location: Los Gatos B&B
(42.6926°N, 77.0646°W)
Time: 07:01:29
(UTC-04:00)
Language:

SL-16 R/B - Orbit

View from above orbital plane
View from above orbital plane
View from above satellite
View from above satellite

Ground track
Ground track

The orbit data is extracted from the following two-line orbital elements,

1 28353U 04021B   14294.62103126  .00000403  00000-0  23664-3 0  8663
2 28353 071.0008 311.6739 0006677 243.9043 255.5345 14.14089655535094
Epoch (UTC): 21 October 2014 14:54:17
Eccentricity: 0.0006677
inclination: 71.0008°
perigee height: 840 km
apogee height: 850 km
right ascension of ascending node: 311.6739°
argument of perigee: 243.9043°
revolutions per day: 14.14089655
mean anomaly at epoch: 255.5345°
orbit number at epoch: 53509

The dashed part of the orbit path shows where the satellite is in the earth's shadow,  

DLR